Mullan Pass, ID

12:08 PM PDT on May 21, 2018 (GMT -0700)
Mullan Pass

Weather History for KMLP - May, 2013

Change the Weather History Date:

Friday, May 24, 2013

  Actual Average (K3TH) Record (K3TH)
Temperature  
Mean Temperature 36 °F -  
Max Temperature 45 °F 66 °F 91 °F (1999)
Min Temperature 30 °F 46 °F 46 °F (2000)
Degree Days  
Heating Degree Days 28    
Moisture  
Dew Point 31 °F    
Average Humidity 89    
Maximum Humidity 100    
Minimum Humidity 49    
Precipitation  
Precipitation 0.00 in - - ()
Sea Level Pressure  
Sea Level Pressure 29.91 in    
Wind  
Wind Speed 4 mph (WSW)    
Max Wind Speed 9 mph    
Max Gust Speed -    
Visibility 6 miles    
Events Fog , Snow    
Averages and records for this station are not official NWS values.
T = Trace of Precipitation, MM = Missing Value Source: NWS Daily Summary

Daily Weather History Graph

Daily Weather History Graph

Search for Another Location

Airport or City:

Astronomy

May. 24, 2013 Rise Set
Actual Time 4:55 AM PDT 8:24 PM PDT
Civil Twilight 4:17 AM PDT 9:02 PM PDT
Nautical Twilight 3:27 AM PDT 9:52 PM PDT
Astronomical Twilight 2:21 AM PDT 11:00 PM PDT
Moon 8:09 PM PDT (5/24) 4:35 AM PDT (5/24)
Length of Visible Light 16h 44m
Length of Day
15h 28m
Full, 100% of the Moon is Illuminated
May 24
Full
May 24
Full
May 31
Last Quarter
Jun 8
New
Jun 16
First Quarter

Hourly Weather History & Observations

Time (PDT) Temp. Windchill Dew Point Humidity Pressure Visibility Wind Dir Wind Speed Gust Speed Precip Events Conditions
12:53 AM 36.0 °F - 28.0 °F 73% 29.83 in 10.0 mi Calm Calm - N/A   Clear
1:53 AM 34.0 °F 31.0 °F 28.9 °F 82% 29.80 in 10.0 mi WNW 3.5 mph - N/A   Clear
2:53 AM 34.0 °F 31.0 °F 28.0 °F 79% 29.80 in 10.0 mi West 3.5 mph - N/A   Clear
3:53 AM 34.0 °F 31.0 °F 27.0 °F 75% 29.79 in 10.0 mi West 3.5 mph - N/A   Clear
4:53 AM 33.1 °F 30.0 °F 27.0 °F 78% 29.78 in 10.0 mi NW 3.5 mph - N/A   Clear
5:53 AM 36.0 °F - 28.0 °F 73% 29.80 in 10.0 mi Calm Calm - N/A   Clear
6:53 AM 36.0 °F - 28.0 °F 73% 29.81 in 10.0 mi Calm Calm - N/A   Clear
7:53 AM 37.0 °F 34.5 °F 28.9 °F 73% 29.81 in 10.0 mi Variable 3.5 mph - N/A   Clear
8:53 AM 39.9 °F - 28.9 °F 65% 29.81 in 10.0 mi Calm Calm - N/A   Partly Cloudy
9:53 AM 43.0 °F 40.3 °F 25.0 °F 49% 29.78 in 10.0 mi Variable 4.6 mph - N/A   Scattered Clouds
10:53 AM 39.0 °F 35.7 °F 30.0 °F 70% 29.79 in 7.0 mi Variable 4.6 mph - N/A   Unknown
11:07 AM 39.2 °F 35.0 °F 28.4 °F 65% 29.91 in 10.0 mi SSW 5.8 mph - N/A   Mostly Cloudy
11:53 AM 41.0 °F 37.1 °F 28.9 °F 62% 29.78 in 10.0 mi Variable 5.8 mph - N/A   Mostly Cloudy
12:16 PM 37.4 °F 30.8 °F 30.2 °F 75% 29.91 in 10.0 mi SW 9.2 mph - N/A   Overcast
12:40 PM 35.6 °F 32.8 °F 32.0 °F 87% 29.92 in 4.0 mi Variable 3.5 mph - N/A   Overcast
12:48 PM 35.6 °F 32.8 °F 32.0 °F 87% 29.92 in 2.5 mi Variable 3.5 mph - N/A   Overcast
12:53 PM 35.1 °F 30.1 °F 33.1 °F 92% 29.81 in 5.0 mi Variable 5.8 mph - N/A Snow Light Snow
12:57 PM 33.8 °F 28.6 °F 32.0 °F 93% 29.92 in 1.8 mi Variable 5.8 mph - 0.00 in Snow Light Snow
1:00 PM 33.8 °F 27.7 °F 32.0 °F 93% 29.92 in 1.2 mi Variable 6.9 mph - 0.00 in Snow Light Snow
1:21 PM 33.8 °F 27.0 °F 33.8 °F 100% 29.92 in 2.0 mi SW 8.1 mph - 0.00 in Snow Light Snow
1:29 PM 33.8 °F 27.7 °F 32.0 °F 93% 29.93 in 1.2 mi SW 6.9 mph - 0.00 in Snow Light Snow
1:35 PM 32.0 °F 24.8 °F 32.0 °F 100% 29.93 in 0.2 mi WSW 8.1 mph - 0.00 in Fog , Snow Snow
1:53 PM 33.1 °F 28.7 °F 32.0 °F 96% 29.84 in 1.0 mi Variable 4.6 mph - 0.00 in Snow Light Snow
1:59 PM 33.8 °F - 33.8 °F 100% 29.93 in 2.5 mi Calm Calm - 0.00 in Snow Light Snow
2:05 PM 33.8 °F 29.6 °F 33.8 °F 100% 29.93 in 0.5 mi Variable 4.6 mph - 0.00 in Fog , Snow Light Snow
2:13 PM 33.8 °F 29.6 °F 33.8 °F 100% 29.93 in 0.2 mi Variable 4.6 mph - 0.00 in Fog , Snow Light Snow
2:16 PM 33.8 °F 30.8 °F 33.8 °F 100% 29.93 in 1.0 mi Variable 3.5 mph - 0.00 in   Overcast
2:25 PM 33.8 °F 29.6 °F 33.8 °F 100% 29.93 in 0.8 mi Variable 4.6 mph - 0.00 in   Overcast
2:28 PM 33.8 °F 28.6 °F 33.8 °F 100% 29.94 in 1.8 mi Variable 5.8 mph - 0.00 in   Overcast
2:30 PM 33.8 °F 28.6 °F 32.0 °F 93% 29.94 in 3.0 mi Variable 5.8 mph - 0.00 in   Overcast
2:33 PM 33.8 °F 30.8 °F 32.0 °F 93% 29.94 in 9.0 mi Variable 3.5 mph - 0.00 in   Overcast
2:40 PM 33.8 °F 30.8 °F 32.0 °F 93% 29.94 in 9.0 mi Variable 3.5 mph - 0.00 in   Overcast
2:53 PM 35.1 °F 30.1 °F 32.0 °F 89% 29.84 in 9.0 mi Variable 5.8 mph - 0.00 in   Overcast
3:09 PM 33.8 °F 29.6 °F 30.2 °F 87% 29.95 in 10.0 mi Variable 4.6 mph - 0.00 in   Overcast
3:53 PM 34.0 °F 31.0 °F 32.0 °F 92% 29.86 in 10.0 mi Variable 3.5 mph - 0.00 in   Mostly Cloudy
4:10 PM 35.6 °F 32.8 °F 30.2 °F 81% 29.96 in 10.0 mi Variable 3.5 mph - 0.00 in   Mostly Cloudy
4:18 PM 33.8 °F 30.8 °F 32.0 °F 93% 29.97 in 10.0 mi Variable 3.5 mph - 0.00 in   Overcast
4:49 PM 33.8 °F 29.6 °F 30.2 °F 87% 29.97 in 2.5 mi Variable 4.6 mph - 0.00 in Snow Light Snow
4:53 PM 33.1 °F 28.7 °F 30.9 °F 92% 29.89 in 1.2 mi Variable 4.6 mph - 0.00 in Snow Light Snow
5:01 PM 33.8 °F 29.6 °F 30.2 °F 87% 29.98 in 2.0 mi Variable 4.6 mph - 0.00 in Snow Light Snow
5:05 PM 33.8 °F 29.6 °F 32.0 °F 93% 29.98 in 3.0 mi Variable 4.6 mph - 0.00 in Snow Light Snow
5:13 PM 33.8 °F 29.6 °F 32.0 °F 93% 29.98 in 1.8 mi Variable 4.6 mph - 0.00 in Snow Light Snow
5:23 PM 33.8 °F 29.6 °F 32.0 °F 93% 29.98 in 3.0 mi Variable 4.6 mph - 0.00 in Snow Light Snow
5:39 PM 32.0 °F 25.6 °F 32.0 °F 100% 29.98 in 10.0 mi Variable 6.9 mph - 0.00 in   Overcast
5:53 PM 32.0 °F 25.6 °F 30.9 °F 96% 29.89 in 4.0 mi WSW 6.9 mph - 0.00 in Snow Light Snow
6:19 PM 32.0 °F 25.6 °F 30.2 °F 93% 29.98 in 10.0 mi Variable 6.9 mph - 0.00 in   Overcast
6:45 PM 32.0 °F - 30.2 °F 93% 29.99 in 4.0 mi Calm Calm - 0.00 in Snow Light Snow
6:53 PM 32.0 °F 28.7 °F 30.9 °F 96% 29.90 in 9.0 mi Variable 3.5 mph - 0.00 in   Overcast
7:53 PM 32.0 °F 28.7 °F 30.0 °F 92% 29.89 in 10.0 mi Variable 3.5 mph - N/A   Overcast
8:01 PM 32.0 °F 28.7 °F 30.2 °F 93% 29.99 in 1.5 mi Variable 3.5 mph - 0.00 in Snow Light Snow
8:03 PM 32.0 °F 27.5 °F 30.2 °F 93% 29.99 in 0.8 mi Variable 4.6 mph - 0.00 in Snow Light Snow
8:13 PM 30.2 °F 22.6 °F 30.2 °F 100% 29.99 in 0.2 mi WNW 8.1 mph - 0.00 in Fog , Snow Heavy Snow
8:37 PM 30.2 °F 23.4 °F 30.2 °F 100% 29.99 in 0.5 mi Variable 6.9 mph - 0.00 in Fog , Snow Light Snow
8:43 PM 30.2 °F 22.6 °F 30.2 °F 100% 29.99 in 2.0 mi SW 8.1 mph - 0.00 in   Overcast
8:48 PM 30.2 °F 23.4 °F 28.4 °F 93% 30.00 in 10.0 mi Variable 6.9 mph - 0.00 in   Overcast
8:53 PM 30.0 °F 25.2 °F 28.9 °F 96% 29.90 in 10.0 mi Variable 4.6 mph - 0.00 in   Overcast
9:53 PM 30.9 °F 25.2 °F 30.0 °F 96% 29.89 in 10.0 mi Variable 5.8 mph - N/A   Overcast
10:11 PM 30.2 °F 24.3 °F 30.2 °F 100% 30.01 in 10.0 mi Variable 5.8 mph - N/A   Overcast
10:18 PM 30.2 °F 24.3 °F 30.2 °F 100% 30.00 in 10.0 mi SW 5.8 mph - N/A   Overcast
10:53 PM 30.9 °F 26.2 °F 30.0 °F 96% 29.89 in 10.0 mi South 4.6 mph - N/A   Overcast
11:13 PM 30.2 °F 26.7 °F 30.2 °F 100% 29.99 in 10.0 mi Variable 3.5 mph - N/A   Overcast
11:24 PM 30.2 °F 26.7 °F 30.2 °F 100% 29.99 in 10.0 mi Variable 3.5 mph - N/A   Overcast
11:53 PM 30.9 °F 25.2 °F 30.0 °F 96% 29.88 in 10.0 mi SW 5.8 mph - N/A   Overcast